TimeCST,TemperatureF,Dew PointF,Humidity,Sea Level PressureIn,VisibilityMPH,Wind Direction,Wind SpeedMPH,Gust SpeedMPH,PrecipitationIn,Events,Conditions,WindDirDegrees,DateUTC
12:01 AM,33.8,28.4,81,29.68,10.0,SSE,6.9,-,N/A,,Scattered Clouds,150,2014-02-20 06:01:00
12:20 AM,33.8,28.4,81,29.68,10.0,SE,6.9,-,N/A,,Clear,140,2014-02-20 06:20:00
12:40 AM,33.8,28.4,81,29.67,10.0,SE,9.2,-,N/A,,Clear,130,2014-02-20 06:40:00
1:01 AM,32.0,26.6,80,29.66,10.0,ESE,8.1,-,N/A,,Clear,120,2014-02-20 07:01:00
1:20 AM,32.0,26.6,80,29.66,10.0,SE,8.1,-,N/A,,Clear,130,2014-02-20 07:20:00
1:41 AM,32.0,26.6,80,29.65,10.0,SE,9.2,-,N/A,,Clear,130,2014-02-20 07:41:00
2:00 AM,32.0,26.6,80,29.65,10.0,SE,4.6,-,N/A,,Mostly Cloudy,130,2014-02-20 08:00:00
2:20 AM,32.0,26.6,80,29.64,10.0,SE,5.8,-,N/A,,Mostly Cloudy,130,2014-02-20 08:20:00
2:41 AM,32.0,26.6,80,29.63,10.0,SE,4.6,-,N/A,,Clear,140,2014-02-20 08:41:00
3:01 AM,32.0,26.6,80,29.63,10.0,SSE,6.9,-,N/A,,Clear,150,2014-02-20 09:01:00
3:20 AM,33.8,26.6,75,29.62,10.0,SSE,5.8,-,N/A,,Clear,160,2014-02-20 09:20:00
3:41 AM,33.8,26.6,75,29.62,10.0,SSE,8.1,-,N/A,,Scattered Clouds,160,2014-02-20 09:41:00
4:01 AM,32.0,26.6,80,29.62,10.0,SSE,8.1,-,N/A,,Scattered Clouds,160,2014-02-20 10:01:00
4:20 AM,33.8,28.4,81,29.62,10.0,SSE,6.9,-,N/A,,Mostly Cloudy,160,2014-02-20 10:20:00
4:41 AM,33.8,28.4,81,29.61,10.0,SSE,6.9,-,N/A,,Overcast,150,2014-02-20 10:41:00
5:00 AM,33.8,28.4,81,29.60,10.0,SE,5.8,-,N/A,,Overcast,130,2014-02-20 11:00:00
5:21 AM,33.8,28.4,81,29.60,10.0,SSE,5.8,-,N/A,,Overcast,150,2014-02-20 11:21:00
5:40 AM,33.8,28.4,81,29.60,10.0,SE,3.5,-,N/A,,Overcast,140,2014-02-20 11:40:00
6:00 AM,32.0,28.4,87,29.59,10.0,SE,4.6,-,N/A,,Overcast,140,2014-02-20 12:00:00
6:21 AM,32.0,28.4,87,29.58,10.0,SE,4.6,-,N/A,,Overcast,140,2014-02-20 12:21:00
6:40 AM,33.8,30.2,87,29.58,10.0,SSE,3.5,-,N/A,,Overcast,150,2014-02-20 12:40:00
7:01 AM,32.0,30.2,93,29.56,7.0,East,3.5,-,N/A,,Overcast,80,2014-02-20 13:01:00
7:21 AM,30.2,30.2,100,29.56,5.0,East,5.8,-,N/A,,Overcast,90,2014-02-20 13:21:00
7:40 AM,30.2,28.4,93,29.56,5.0,East,5.8,-,N/A,,Mostly Cloudy,90,2014-02-20 13:40:00
8:01 AM,32.0,30.2,93,29.55,5.0,East,9.2,-,N/A,,Overcast,100,2014-02-20 14:01:00
8:20 AM,33.8,32.0,93,29.56,7.0,SE,8.1,-,N/A,,Mostly Cloudy,130,2014-02-20 14:20:00
8:41 AM,33.8,32.0,93,29.57,7.0,SSE,5.8,-,N/A,,Mostly Cloudy,150,2014-02-20 14:41:00
9:01 AM,33.8,32.0,93,29.56,7.0,Calm,Calm,-,N/A,,Mostly Cloudy,0,2014-02-20 15:01:00
9:20 AM,33.8,30.2,87,29.56,7.0,SE,3.5,-,N/A,,Mostly Cloudy,140,2014-02-20 15:20:00
9:41 AM,33.8,32.0,93,29.55,7.0,SE,5.8,-,N/A,,Overcast,140,2014-02-20 15:41:00
10:00 AM,33.8,32.0,93,29.55,5.0,ESE,4.6,-,N/A,,Light Drizzle,110,2014-02-20 16:00:00
10:21 AM,33.8,30.2,87,29.54,3.0,East,5.8,-,N/A,,Drizzle,90,2014-02-20 16:21:00
10:41 AM,33.8,32.0,93,29.52,1.5,ENE,3.5,-,0.01,Rain,Light Rain,70,2014-02-20 16:41:00
11:00 AM,33.8,32.0,93,29.50,1.5,ENE,4.6,-,N/A,Rain,Rain,60,2014-02-20 17:00:00
11:21 AM,33.8,32.0,93,29.48,1.8,NE,5.8,-,N/A,,Drizzle,40,2014-02-20 17:21:00
11:40 AM,33.8,32.0,93,29.45,1.5,NE,8.1,-,N/A,Rain,Light Rain,40,2014-02-20 17:40:00
12:00 PM,33.8,32.0,93,29.44,1.5,NE,5.8,-,N/A,Snow,Light Snow,40,2014-02-20 18:00:00
12:21 PM,32.0,32.0,100,29.42,1.2,NNE,4.6,-,0.01,Rain,Light Rain,20,2014-02-20 18:21:00
12:40 PM,32.0,30.2,93,29.42,1.0,North,4.6,-,0.02,Rain,Light Rain,10,2014-02-20 18:40:00
1:01 PM,32.0,32.0,100,29.43,1.0,North,4.6,-,0.01,Snow,Snow,350,2014-02-20 19:01:00
1:20 PM,32.0,30.2,93,29.45,0.5,West,3.5,-,0.04,Snow,Snow,280,2014-02-20 19:20:00
1:40 PM,30.2,30.2,100,29.43,0.2,NW,4.6,-,0.07,Snow,Snow,320,2014-02-20 19:40:00
2:00 PM,30.2,30.2,100,29.40,0.2,NNW,4.6,-,0.01,Snow,Heavy Snow,340,2014-02-20 20:00:00
2:20 PM,32.0,30.2,93,29.38,0.5,North,5.8,-,0.06,Snow,Snow,360,2014-02-20 20:20:00
2:41 PM,32.0,30.2,93,29.37,1.5,North,6.9,-,0.07,Snow,Light Snow,360,2014-02-20 20:41:00
3:00 PM,32.0,30.2,93,29.35,1.5,North,9.2,-,N/A,,Overcast,360,2014-02-20 21:00:00
3:21 PM,32.0,30.2,93,29.35,2.5,North,8.1,-,N/A,,Overcast,360,2014-02-20 21:21:00
3:40 PM,32.0,30.2,93,29.34,2.0,North,6.9,-,0.01,,Overcast,360,2014-02-20 21:40:00
4:00 PM,30.2,30.2,100,29.32,1.0,North,8.1,-,N/A,Snow,Light Snow,360,2014-02-20 22:00:00
4:21 PM,30.2,30.2,100,29.30,1.8,North,9.2,-,0.01,,Overcast,350,2014-02-20 22:21:00
4:41 PM,30.2,30.2,100,29.29,1.0,North,11.5,17.3,0.02,Snow,Light Snow,350,2014-02-20 22:41:00
5:01 PM,30.2,30.2,100,29.28,0.5,NNW,12.7,-,N/A,Snow,Snow,340,2014-02-20 23:01:00
5:20 PM,30.2,30.2,100,29.26,0.5,NNW,12.7,-,0.02,Snow,Snow,330,2014-02-20 23:20:00
5:41 PM,30.2,30.2,100,29.26,1.0,NNW,10.4,-,0.04,Snow,Snow,330,2014-02-20 23:41:00
6:00 PM,30.2,30.2,100,29.27,1.0,NNW,10.4,-,N/A,Snow,Snow,330,2014-02-21 00:00:00
6:20 PM,30.2,30.2,100,29.27,0.8,NW,9.2,-,0.01,Snow,Snow,320,2014-02-21 00:20:00
6:41 PM,30.2,30.2,100,29.27,0.8,NW,11.5,-,0.03,Snow,Snow,320,2014-02-21 00:41:00
7:00 PM,30.2,30.2,100,29.26,0.8,NW,13.8,-,N/A,Snow,Snow,320,2014-02-21 01:00:00
7:21 PM,30.2,30.2,100,29.25,0.8,NW,16.1,20.7,N/A,Snow,Snow,320,2014-02-21 01:21:00
7:41 PM,30.2,30.2,100,29.25,1.0,NW,13.8,23.0,N/A,Snow,Snow,310,2014-02-21 01:41:00
8:00 PM,30.2,30.2,100,29.24,0.8,NW,15.0,-,N/A,Snow,Snow,310,2014-02-21 02:00:00
8:20 PM,30.2,30.2,100,29.24,0.8,NW,18.4,-,N/A,Snow,Snow,310,2014-02-21 02:20:00
8:40 PM,30.2,30.2,100,29.23,0.8,NW,20.7,26.5,N/A,Snow,Snow,310,2014-02-21 02:40:00
9:01 PM,26.6,26.6,100,29.24,0.8,NW,24.2,36.8,N/A,Snow,Snow,310,2014-02-21 03:01:00
9:20 PM,24.8,24.8,100,29.24,1.0,WNW,25.3,34.5,N/A,Snow,Snow,300,2014-02-21 03:20:00
9:41 PM,23.0,21.2,93,29.25,1.0,WNW,29.9,35.7,N/A,Snow,Light Snow,290,2014-02-21 03:41:00
10:00 PM,19.4,17.6,93,29.26,1.0,WNW,25.3,38.0,N/A,Snow,Light Snow,300,2014-02-21 04:00:00
10:21 PM,19.4,17.6,93,29.24,1.0,WNW,31.1,39.1,N/A,Snow,Light Snow,300,2014-02-21 04:21:00
10:40 PM,17.6,15.8,93,29.27,1.0,WNW,25.3,34.5,N/A,Snow,Light Snow,290,2014-02-21 04:40:00
11:01 PM,17.6,15.8,93,29.27,1.0,WNW,25.3,34.5,N/A,Snow,Light Snow,290,2014-02-21 05:01:00
11:20 PM,15.8,14.0,93,29.29,1.0,WNW,19.6,-,N/A,Snow,Light Snow,290,2014-02-21 05:20:00
11:41 PM,14.0,12.2,93,29.28,1.0,WNW,20.7,28.8,N/A,Snow,Light Snow,290,2014-02-21 05:41:00